GEFSNE_prec_meanprec_012.txt.gz
QPF
0.06 0.06 0.05 0.04 0.03 0.01 0.01 0.00 0.00 0.00 0.00 0.00 0.00 0.00 0.00 0.01 0.02 0.01 0.01 0.01 0.01 0.01 0.01 0.01 0.01 0.01 0.00 0.00 0.00 0.00 0.00 0.00 0.00 0.00 0.00 0.00 0.00 0.00
0.09 0.09 0.08 0.06 0.04 0.02 0.01 0.01 0.00 0.00 0.00 0.00 0.00 0.00 0.00 0.01 0.01 0.01 0.00 0.00 0.00 0.00 0.00 0.00 0.00 0.00 0.00 0.00 0.00 0.00 0.00 0.00 0.00 0.00 0.00 0.00 0.00 0.00
0.12 0.13 0.12 0.08 0.05 0.04 0.02 0.01 0.01 0.00 0.00 0.00 0.00 0.00 0.00 0.00 0.00 0.00 0.00 0.00 0.00 0.00 0.00 0.00 0.00 0.00 0.00 0.00 0.00 0.00 0.00 0.00 0.00 0.00 0.00 0.00 0.00 0.00
0.22 0.18 0.15 0.11 0.07 0.04 0.03 0.02 0.01 0.00 0.00 0.00 0.00 0.00 0.00 0.00 0.00 0.00 0.00 0.00 0.00 0.00 0.00 0.00 0.00 0.00 0.00 0.00 0.00 0.00 0.00 0.00 0.00 0.00 0.00 0.00 0.00 0.00
0.39 0.29 0.19 0.10 0.06 0.04 0.04 0.02 0.01 0.00 0.00 0.00 0.00 0.00 0.00 0.00 0.00 0.00 0.00 0.00 0.00 0.00 0.01 0.00 0.00 0.00 0.00 0.00 0.00 0.00 0.00 0.00 0.00 0.00 0.00 0.00 0.00 0.00
0.43 0.34 0.25 0.14 0.07 0.05 0.04 0.03 0.02 0.01 0.01 0.01 0.01 0.01 0.00 0.00 0.01 0.01 0.01 0.00 0.00 0.00 0.01 0.01 0.00 0.00 0.00 0.00 0.00 0.00 0.00 0.00 0.00 0.00 0.00 0.00 0.00 0.00
0.25 0.23 0.19 0.16 0.12 0.08 0.05 0.04 0.02 0.02 0.01 0.02 0.02 0.01 0.01 0.02 0.02 0.03 0.04 0.03 0.03 0.03 0.02 0.01 0.00 0.00 0.00 0.00 0.00 0.00 0.00 0.00 0.00 0.00 0.00 0.00 0.00 0.00
0.15 0.16 0.13 0.11 0.09 0.08 0.07 0.05 0.04 0.03 0.03 0.03 0.02 0.02 0.01 0.01 0.02 0.04 0.06 0.07 0.07 0.08 0.09 0.08 0.03 0.01 0.00 0.00 0.00 0.00 0.00 0.00 0.00 0.00 0.00 0.00 0.00 0.00
0.06 0.08 0.07 0.05 0.04 0.04 0.05 0.04 0.03 0.03 0.04 0.05 0.06 0.06 0.04 0.03 0.03 0.03 0.06 0.11 0.11 0.10 0.14 0.18 0.15 0.09 0.03 0.01 0.00 0.00 0.00 0.00 0.00 0.00 0.00 0.00 0.00 0.00
0.01 0.02 0.02 0.03 0.02 0.02 0.03 0.03 0.02 0.02 0.03 0.05 0.08 0.09 0.07 0.06 0.05 0.05 0.06 0.09 0.13 0.16 0.16 0.18 0.16 0.13 0.08 0.04 0.01 0.00 0.00 0.00 0.00 0.00 0.00 0.00 0.00 0.00
0.00 0.00 0.01 0.01 0.01 0.00 0.01 0.02 0.02 0.03 0.03 0.04 0.05 0.06 0.06 0.06 0.05 0.05 0.06 0.07 0.09 0.10 0.13 0.15 0.13 0.09 0.06 0.04 0.02 0.01 0.00 0.00 0.00 0.00 0.00 0.00 0.00 0.00
0.00 0.00 0.01 0.02 0.01 0.00 0.00 0.01 0.02 0.02 0.01 0.01 0.01 0.01 0.01 0.02 0.02 0.04 0.06 0.07 0.07 0.07 0.05 0.05 0.06 0.05 0.04 0.02 0.00 0.00 0.00 0.00 0.00 0.00 0.00 0.00 0.00 0.00
0.00 0.00 0.01 0.03 0.02 0.01 0.00 0.00 0.01 0.01 0.00 0.00 0.00 0.00 0.00 0.00 0.00 0.01 0.01 0.02 0.02 0.02 0.01 0.01 0.01 0.01 0.01 0.00 0.00 0.00 0.00 0.00 0.00 0.00 0.00 0.00 0.00 0.00
0.00 0.00 0.01 0.02 0.01 0.01 0.00 0.00 0.00 0.00 0.00 0.00 0.00 0.00 0.00 0.00 0.00 0.00 0.00 0.00 0.00 0.00 0.00 0.00 0.00 0.00 0.00 0.00 0.00 0.00 0.00 0.00 0.00 0.00 0.00 0.00 0.00 0.00
0.01 0.02 0.01 0.00 0.00 0.00 0.00 0.00 0.00 0.00 0.00 0.00 0.00 0.00 0.00 0.00 0.00 0.00 0.00 0.00 0.00 0.00 0.00 0.00 0.00 0.00 0.00 0.00 0.00 0.00 0.00 0.00 0.00 0.00 0.00 0.00 0.00 0.00
0.02 0.03 0.01 0.00 0.00 0.00 0.00 0.00 0.00 0.00 0.00 0.00 0.00 0.00 0.00 0.00 0.00 0.00 0.00 0.00 0.00 0.00 0.00 0.00 0.00 0.00 0.00 0.00 0.00 0.00 0.00 0.00 0.00 0.00 0.00 0.00 0.00 0.00
0.01 0.01 0.00 0.00 0.00 0.00 0.00 0.00 0.00 0.00 0.00 0.00 0.00 0.00 0.00 0.00 0.00 0.00 0.00 0.00 0.00 0.00 0.00 0.00 0.00 0.00 0.00 0.00 0.00 0.00 0.00 0.00 0.00 0.00 0.00 0.00 0.00 0.00
0.02 0.00 0.00 0.00 0.00 0.00 0.00 0.00 0.00 0.00 0.00 0.00 0.00 0.00 0.00 0.00 0.00 0.00 0.00 0.00 0.00 0.00 0.00 0.00 0.00 0.00 0.00 0.00 0.00 0.00 0.00 0.00 0.00 0.00 0.00 0.00 0.00 0.00
0.01 0.00 0.00 0.00 0.00 0.00 0.00 0.00 0.00 0.00 0.00 0.00 0.00 0.00 0.00 0.00 0.00 0.00 0.00 0.00 0.00 0.00 0.00 0.00 0.00 0.00 0.00 0.00 0.00 0.00 0.00 0.00 0.00 0.00 0.00 0.00 0.00 0.00
0.00 0.00 0.00 0.00 0.00 0.00 0.00 0.00 0.00 0.00 0.00 0.00 0.00 0.00 0.00 0.00 0.00 0.00 0.00 0.00 0.00 0.00 0.00 0.00 0.00 0.00 0.00 0.00 0.00 0.00 0.00 0.00 0.00 0.00 0.00 0.00 0.00 0.00
0.00 0.00 0.00 0.00 0.00 0.00 0.00 0.00 0.00 0.00 0.00 0.00 0.00 0.00 0.00 0.00 0.00 0.00 0.00 0.00 0.00 0.00 0.00 0.00 0.00 0.00 0.00 0.00 0.00 0.00 0.00 0.00 0.00 0.00 0.00 0.00 0.00 0.00
0.00 0.00 0.00 0.00 0.00 0.00 0.00 0.00 0.00 0.00 0.00 0.00 0.00 0.00 0.00 0.00 0.00 0.00 0.00 0.00 0.00 0.00 0.00 0.00 0.00 0.00 0.00 0.00 0.00 0.00 0.00 0.00 0.00 0.00 0.00 0.00 0.01 0.01
0.00 0.00 0.00 0.00 0.00 0.00 0.00 0.00 0.00 0.00 0.00 0.00 0.00 0.00 0.00 0.00 0.00 0.00 0.00 0.00 0.00 0.00 0.00 0.00 0.00 0.00 0.00 0.00 0.00 0.00 0.00 0.00 0.00 0.00 0.00 0.00 0.00 0.00

GEFSNE_prec_meanprec_018.txt.gz
QPF
0.01 0.01 0.01 0.02 0.03 0.03 0.03 0.04 0.05 0.04 0.02 0.01 0.01 0.01 0.01 0.02 0.04 0.05 0.05 0.04 0.03 0.05 0.08 0.12 0.15 0.15 0.15 0.12 0.10 0.07 0.05 0.02 0.01 0.00 0.00 0.00 0.00 0.00
0.02 0.02 0.03 0.04 0.05 0.05 0.04 0.04 0.04 0.04 0.03 0.01 0.01 0.01 0.01 0.02 0.04 0.06 0.07 0.05 0.04 0.04 0.06 0.09 0.12 0.15 0.15 0.12 0.09 0.05 0.03 0.01 0.00 0.00 0.00 0.00 0.00 0.00
0.02 0.03 0.04 0.07 0.09 0.08 0.07 0.06 0.05 0.05 0.04 0.02 0.01 0.01 0.02 0.03 0.04 0.04 0.05 0.04 0.03 0.04 0.04 0.06 0.09 0.11 0.12 0.11 0.08 0.05 0.03 0.01 0.00 0.00 0.00 0.00 0.00 0.00
0.05 0.07 0.09 0.14 0.18 0.17 0.14 0.10 0.07 0.06 0.05 0.04 0.01 0.01 0.02 0.04 0.05 0.05 0.03 0.01 0.01 0.02 0.03 0.03 0.05 0.07 0.07 0.07 0.06 0.04 0.02 0.01 0.00 0.00 0.00 0.00 0.00 0.00
0.13 0.19 0.23 0.27 0.31 0.31 0.27 0.21 0.15 0.09 0.07 0.05 0.03 0.01 0.02 0.04 0.05 0.04 0.02 0.01 0.01 0.01 0.02 0.02 0.02 0.03 0.03 0.03 0.03 0.02 0.02 0.01 0.00 0.00 0.00 0.00 0.00 0.00
0.20 0.28 0.35 0.41 0.42 0.40 0.38 0.34 0.27 0.19 0.12 0.08 0.06 0.03 0.02 0.03 0.05 0.04 0.03 0.02 0.01 0.01 0.02 0.01 0.01 0.01 0.01 0.01 0.01 0.01 0.01 0.01 0.00 0.00 0.00 0.00 0.00 0.00
0.14 0.21 0.30 0.38 0.45 0.45 0.43 0.42 0.36 0.30 0.22 0.14 0.09 0.05 0.03 0.02 0.04 0.05 0.03 0.02 0.01 0.01 0.01 0.01 0.01 0.01 0.01 0.01 0.01 0.01 0.00 0.00 0.00 0.00 0.00 0.00 0.00 0.00
0.06 0.09 0.15 0.23 0.31 0.37 0.39 0.40 0.40 0.35 0.27 0.19 0.12 0.07 0.04 0.03 0.04 0.05 0.05 0.03 0.01 0.00 0.00 0.00 0.01 0.01 0.01 0.00 0.00 0.00 0.00 0.00 0.00 0.00 0.00 0.00 0.00 0.00
0.02 0.03 0.05 0.09 0.14 0.19 0.21 0.24 0.29 0.30 0.26 0.19 0.13 0.09 0.05 0.03 0.03 0.04 0.06 0.06 0.02 0.01 0.02 0.01 0.01 0.01 0.00 0.00 0.00 0.00 0.00 0.00 0.00 0.00 0.00 0.00 0.00 0.00
0.01 0.02 0.02 0.03 0.06 0.08 0.10 0.12 0.15 0.18 0.18 0.15 0.14 0.13 0.09 0.05 0.03 0.03 0.04 0.06 0.06 0.06 0.07 0.07 0.05 0.04 0.02 0.01 0.01 0.00 0.00 0.00 0.00 0.00 0.00 0.00 0.00 0.00
0.01 0.05 0.04 0.01 0.03 0.03 0.05 0.07 0.08 0.12 0.12 0.11 0.10 0.10 0.10 0.08 0.06 0.04 0.04 0.06 0.10 0.14 0.17 0.18 0.16 0.12 0.08 0.06 0.04 0.03 0.01 0.00 0.00 0.00 0.00 0.00 0.00 0.00
0.01 0.05 0.08 0.04 0.02 0.01 0.03 0.04 0.04 0.06 0.06 0.05 0.04 0.04 0.04 0.04 0.07 0.09 0.09 0.08 0.08 0.13 0.19 0.24 0.28 0.24 0.18 0.12 0.06 0.03 0.02 0.01 0.00 0.00 0.00 0.00 0.00 0.00
0.01 0.05 0.08 0.04 0.01 0.01 0.01 0.02 0.03 0.02 0.01 0.01 0.01 0.02 0.02 0.02 0.03 0.07 0.11 0.11 0.11 0.13 0.15 0.17 0.23 0.26 0.21 0.14 0.07 0.03 0.02 0.01 0.01 0.00 0.00 0.00 0.00 0.00
0.02 0.03 0.04 0.02 0.01 0.00 0.00 0.00 0.00 0.00 0.00 0.00 0.00 0.00 0.00 0.01 0.01 0.03 0.05 0.07 0.08 0.12 0.12 0.10 0.13 0.15 0.14 0.11 0.07 0.02 0.01 0.01 0.00 0.00 0.00 0.00 0.00 0.00
0.12 0.08 0.01 0.00 0.00 0.00 0.00 0.00 0.00 0.00 0.00 0.00 0.00 0.00 0.00 0.00 0.00 0.00 0.01 0.02 0.02 0.03 0.05 0.05 0.06 0.08 0.07 0.06 0.03 0.02 0.01 0.00 0.00 0.00 0.00 0.00 0.00 0.00
0.08 0.05 0.01 0.00 0.00 0.00 0.00 0.00 0.00 0.00 0.00 0.00 0.00 0.00 0.00 0.00 0.00 0.00 0.00 0.00 0.00 0.01 0.01 0.01 0.02 0.02 0.02 0.02 0.01 0.00 0.00 0.00 0.00 0.00 0.00 0.00 0.00 0.00
0.03 0.01 0.00 0.00 0.00 0.00 0.00 0.00 0.00 0.00 0.00 0.00 0.00 0.00 0.00 0.00 0.00 0.00 0.00 0.00 0.00 0.00 0.00 0.00 0.00 0.00 0.00 0.00 0.00 0.00 0.00 0.00 0.00 0.00 0.00 0.00 0.00 0.00
0.02 0.01 0.00 0.00 0.00 0.00 0.00 0.00 0.00 0.00 0.00 0.00 0.00 0.00 0.00 0.00 0.00 0.00 0.00 0.00 0.00 0.00 0.00 0.00 0.00 0.00 0.00 0.00 0.00 0.00 0.00 0.00 0.00 0.00 0.00 0.00 0.00 0.00
0.00 0.00 0.00 0.00 0.00 0.00 0.00 0.00 0.00 0.00 0.00 0.00 0.00 0.00 0.00 0.00 0.00 0.00 0.00 0.00 0.00 0.00 0.00 0.00 0.00 0.00 0.00 0.00 0.00 0.00 0.00 0.00 0.00 0.00 0.00 0.00 0.00 0.00
0.00 0.00 0.00 0.00 0.00 0.00 0.00 0.00 0.00 0.00 0.00 0.00 0.00 0.00 0.00 0.00 0.00 0.00 0.00 0.00 0.00 0.00 0.00 0.00 0.00 0.00 0.00 0.00 0.00 0.00 0.00 0.00 0.00 0.00 0.00 0.00 0.00 0.00
0.00 0.00 0.00 0.00 0.00 0.00 0.00 0.00 0.00 0.00 0.00 0.00 0.00 0.00 0.00 0.00 0.00 0.00 0.00 0.00 0.00 0.00 0.00 0.00 0.00 0.00 0.00 0.00 0.00 0.00 0.00 0.00 0.00 0.00 0.00 0.00 0.00 0.00
0.00 0.00 0.00 0.00 0.00 0.00 0.00 0.00 0.00 0.00 0.00 0.00 0.00 0.00 0.00 0.00 0.00 0.00 0.00 0.00 0.00 0.00 0.00 0.00 0.00 0.00 0.00 0.00 0.00 0.00 0.00 0.00 0.00 0.00 0.00 0.00 0.00 0.00
0.00 0.00 0.00 0.00 0.00 0.00 0.00 0.00 0.00 0.00 0.00 0.00 0.00 0.00 0.00 0.00 0.00 0.00 0.00 0.00 0.00 0.00 0.00 0.00 0.00 0.00 0.00 0.00 0.00 0.00 0.00 0.00 0.00 0.00 0.00 0.00 0.00 0.00

GEFSNE_prec_meanprec_024.txt.gz
QPF
0.02 0.03 0.04 0.04 0.05 0.04 0.03 0.03 0.04 0.03 0.02 0.01 0.01 0.02 0.03 0.03 0.03 0.01 0.01 0.00 0.01 0.01 0.02 0.03 0.05 0.07 0.09 0.11 0.17 0.24 0.24 0.15 0.07 0.05 0.06 0.07 0.05 0.02
0.03 0.04 0.05 0.06 0.07 0.07 0.06 0.04 0.04 0.03 0.02 0.01 0.02 0.02 0.03 0.04 0.03 0.02 0.01 0.01 0.00 0.01 0.01 0.03 0.05 0.10 0.14 0.17 0.19 0.19 0.22 0.20 0.15 0.12 0.13 0.11 0.06 0.02
0.02 0.04 0.04 0.05 0.06 0.06 0.07 0.06 0.05 0.04 0.03 0.01 0.01 0.01 0.03 0.05 0.05 0.05 0.04 0.02 0.01 0.01 0.01 0.03 0.06 0.11 0.18 0.24 0.27 0.27 0.26 0.22 0.19 0.17 0.15 0.09 0.03 0.01
0.02 0.03 0.04 0.04 0.04 0.05 0.06 0.06 0.05 0.04 0.04 0.03 0.02 0.01 0.02 0.05 0.08 0.09 0.09 0.06 0.03 0.02 0.02 0.03 0.06 0.11 0.18 0.25 0.29 0.31 0.32 0.30 0.26 0.19 0.12 0.06 0.02 0.01
0.02 0.04 0.05 0.05 0.05 0.04 0.05 0.05 0.04 0.03 0.03 0.03 0.03 0.02 0.03 0.06 0.11 0.13 0.13 0.09 0.05 0.03 0.03 0.03 0.05 0.09 0.14 0.19 0.25 0.28 0.30 0.30 0.27 0.22 0.13 0.06 0.02 0.01
0.02 0.03 0.06 0.08 0.09 0.09 0.07 0.04 0.03 0.03 0.03 0.04 0.05 0.05 0.05 0.07 0.13 0.14 0.13 0.10 0.06 0.04 0.03 0.03 0.04 0.06 0.08 0.11 0.14 0.19 0.24 0.28 0.28 0.23 0.14 0.06 0.02 0.00
0.01 0.03 0.06 0.10 0.14 0.15 0.14 0.09 0.05 0.04 0.04 0.05 0.07 0.09 0.08 0.09 0.14 0.17 0.14 0.09 0.07 0.05 0.04 0.02 0.02 0.03 0.05 0.08 0.12 0.16 0.20 0.21 0.19 0.15 0.10 0.05 0.02 0.00
0.02 0.03 0.04 0.09 0.11 0.13 0.16 0.15 0.14 0.14 0.13 0.13 0.14 0.14 0.13 0.13 0.17 0.22 0.16 0.10 0.09 0.07 0.04 0.04 0.04 0.04 0.05 0.06 0.09 0.12 0.13 0.13 0.12 0.09 0.07 0.04 0.03 0.01
0.04 0.05 0.05 0.07 0.08 0.09 0.12 0.15 0.20 0.27 0.31 0.31 0.30 0.26 0.20 0.19 0.21 0.25 0.21 0.12 0.07 0.07 0.04 0.05 0.06 0.07 0.07 0.09 0.12 0.10 0.09 0.07 0.06 0.05 0.05 0.04 0.03 0.02
0.08 0.06 0.03 0.05 0.08 0.07 0.08 0.12 0.18 0.29 0.41 0.47 0.46 0.40 0.29 0.23 0.25 0.30 0.32 0.23 0.13 0.09 0.04 0.05 0.06 0.08 0.10 0.12 0.12 0.09 0.06 0.04 0.03 0.03 0.03 0.03 0.02 0.02
0.08 0.06 0.03 0.03 0.05 0.03 0.04 0.07 0.11 0.19 0.29 0.38 0.41 0.39 0.34 0.32 0.33 0.35 0.36 0.32 0.28 0.21 0.10 0.06 0.06 0.07 0.09 0.12 0.13 0.09 0.05 0.03 0.02 0.02 0.02 0.02 0.02 0.01
0.05 0.03 0.02 0.02 0.02 0.02 0.02 0.03 0.05 0.09 0.14 0.20 0.24 0.29 0.32 0.33 0.36 0.39 0.41 0.35 0.34 0.32 0.22 0.10 0.08 0.06 0.07 0.08 0.08 0.06 0.04 0.03 0.02 0.01 0.01 0.01 0.01 0.00
0.03 0.02 0.01 0.01 0.01 0.01 0.01 0.01 0.03 0.03 0.05 0.09 0.14 0.20 0.27 0.33 0.36 0.40 0.42 0.38 0.34 0.33 0.27 0.17 0.13 0.09 0.06 0.06 0.06 0.04 0.02 0.01 0.01 0.01 0.00 0.00 0.00 0.00
0.03 0.01 0.00 0.00 0.00 0.00 0.00 0.00 0.00 0.00 0.01 0.03 0.06 0.10 0.17 0.25 0.31 0.36 0.38 0.37 0.35 0.31 0.24 0.18 0.14 0.11 0.08 0.06 0.05 0.04 0.02 0.01 0.01 0.01 0.00 0.00 0.00 0.00
0.03 0.01 0.00 0.00 0.00 0.00 0.00 0.00 0.00 0.00 0.00 0.01 0.03 0.05 0.08 0.13 0.16 0.20 0.23 0.24 0.23 0.21 0.19 0.16 0.15 0.13 0.11 0.09 0.06 0.04 0.03 0.02 0.01 0.01 0.00 0.00 0.00 0.00
0.01 0.00 0.00 0.00 0.00 0.00 0.00 0.00 0.00 0.00 0.00 0.00 0.01 0.02 0.03 0.04 0.06 0.08 0.10 0.11 0.11 0.11 0.11 0.11 0.12 0.12 0.12 0.11 0.09 0.08 0.05 0.02 0.01 0.01 0.00 0.00 0.00 0.00
0.00 0.00 0.00 0.00 0.00 0.00 0.00 0.00 0.00 0.00 0.00 0.00 0.00 0.00 0.01 0.01 0.02 0.02 0.03 0.04 0.05 0.05 0.05 0.06 0.06 0.06 0.07 0.07 0.08 0.07 0.05 0.03 0.01 0.00 0.00 0.00 0.00 0.00
0.00 0.00 0.00 0.00 0.00 0.00 0.00 0.00 0.00 0.00 0.00 0.00 0.00 0.00 0.00 0.00 0.00 0.00 0.01 0.01 0.02 0.02 0.02 0.02 0.02 0.02 0.03 0.03 0.03 0.02 0.02 0.01 0.00 0.00 0.00 0.00 0.00 0.00
0.00 0.00 0.00 0.00 0.00 0.00 0.00 0.00 0.00 0.00 0.00 0.00 0.00 0.00 0.00 0.00 0.00 0.00 0.00 0.00 0.00 0.00 0.00 0.00 0.00 0.00 0.01 0.01 0.01 0.00 0.00 0.00 0.00 0.00 0.00 0.00 0.00 0.00
0.00 0.00 0.00 0.00 0.00 0.00 0.00 0.00 0.00 0.00 0.00 0.00 0.00 0.00 0.00 0.00 0.00 0.00 0.00 0.00 0.00 0.00 0.00 0.00 0.00 0.00 0.00 0.00 0.00 0.00 0.00 0.00 0.00 0.00 0.00 0.00 0.00 0.00
0.00 0.00 0.00 0.00 0.00 0.00 0.00 0.00 0.00 0.00 0.00 0.00 0.00 0.00 0.00 0.00 0.00 0.00 0.00 0.00 0.00 0.00 0.00 0.00 0.00 0.00 0.00 0.00 0.00 0.00 0.00 0.00 0.00 0.00 0.00 0.00 0.00 0.00
0.00 0.00 0.00 0.00 0.00 0.00 0.00 0.00 0.00 0.00 0.00 0.00 0.00 0.00 0.00 0.00 0.00 0.00 0.00 0.00 0.00 0.00 0.00 0.00 0.00 0.00 0.00 0.00 0.00 0.00 0.00 0.00 0.00 0.00 0.00 0.00 0.00 0.00
0.00 0.00 0.00 0.00 0.00 0.00 0.00 0.00 0.00 0.00 0.00 0.00 0.00 0.00 0.00 0.00 0.00 0.00 0.00 0.00 0.00 0.00 0.00 0.00 0.00 0.00 0.00 0.00 0.00 0.00 0.00 0.00 0.00 0.00 0.00 0.00 0.00 0.00

GEFSNE_prec_meanprec_030.txt.gz
QPF
0.03 0.02 0.01 0.01 0.02 0.03 0.04 0.05 0.04 0.02 0.01 0.01 0.02 0.03 0.04 0.05 0.06 0.06 0.05 0.06 0.07 0.07 0.07 0.07 0.07 0.08 0.13 0.23 0.35 0.43 0.41 0.26 0.12 0.06 0.03 0.03 0.02 0.02
0.02 0.01 0.01 0.01 0.02 0.03 0.05 0.05 0.05 0.04 0.02 0.01 0.02 0.04 0.05 0.05 0.06 0.06 0.06 0.06 0.06 0.05 0.05 0.05 0.06 0.06 0.09 0.14 0.21 0.29 0.37 0.40 0.30 0.17 0.10 0.10 0.09 0.07
0.01 0.01 0.01 0.02 0.03 0.03 0.04 0.05 0.05 0.05 0.03 0.01 0.01 0.04 0.07 0.07 0.06 0.06 0.06 0.06 0.05 0.04 0.04 0.03 0.04 0.05 0.06 0.10 0.13 0.18 0.27 0.35 0.36 0.29 0.25 0.22 0.15 0.08
0.01 0.02 0.03 0.04 0.05 0.05 0.05 0.06 0.07 0.07 0.05 0.02 0.01 0.03 0.07 0.09 0.09 0.07 0.06 0.06 0.05 0.04 0.03 0.02 0.02 0.03 0.05 0.07 0.10 0.13 0.19 0.26 0.30 0.29 0.30 0.30 0.22 0.12
0.03 0.04 0.06 0.09 0.10 0.09 0.10 0.09 0.08 0.08 0.07 0.04 0.02 0.02 0.05 0.08 0.11 0.10 0.07 0.05 0.05 0.04 0.03 0.02 0.01 0.01 0.03 0.06 0.08 0.10 0.12 0.14 0.21 0.32 0.42 0.39 0.28 0.20
0.03 0.05 0.09 0.13 0.15 0.14 0.14 0.10 0.06 0.06 0.06 0.04 0.02 0.02 0.03 0.05 0.09 0.12 0.10 0.07 0.05 0.04 0.03 0.02 0.01 0.01 0.01 0.03 0.04 0.09 0.15 0.23 0.28 0.38 0.47 0.44 0.32 0.27
0.02 0.03 0.08 0.11 0.11 0.15 0.16 0.11 0.07 0.05 0.04 0.04 0.02 0.02 0.02 0.04 0.06 0.09 0.10 0.09 0.07 0.04 0.03 0.01 0.01 0.00 0.01 0.02 0.05 0.09 0.14 0.20 0.28 0.38 0.46 0.47 0.39 0.30
0.02 0.01 0.03 0.07 0.06 0.07 0.10 0.09 0.09 0.09 0.07 0.05 0.04 0.04 0.04 0.04 0.04 0.06 0.09 0.10 0.08 0.04 0.04 0.02 0.02 0.01 0.01 0.01 0.03 0.07 0.12 0.18 0.24 0.29 0.34 0.36 0.34 0.28
0.03 0.01 0.01 0.05 0.05 0.04 0.05 0.06 0.07 0.08 0.09 0.08 0.08 0.07 0.05 0.03 0.03 0.04 0.06 0.07 0.06 0.05 0.06 0.05 0.04 0.03 0.02 0.03 0.05 0.07 0.11 0.14 0.17 0.19 0.21 0.23 0.23 0.21
0.03 0.01 0.01 0.03 0.05 0.02 0.03 0.05 0.07 0.08 0.11 0.11 0.11 0.10 0.06 0.03 0.01 0.02 0.05 0.07 0.07 0.09 0.10 0.09 0.10 0.07 0.08 0.09 0.11 0.10 0.10 0.10 0.12 0.13 0.14 0.14 0.14 0.13
0.01 0.01 0.01 0.01 0.03 0.01 0.01 0.02 0.03 0.05 0.07 0.10 0.10 0.08 0.05 0.03 0.02 0.02 0.05 0.10 0.12 0.14 0.13 0.11 0.14 0.13 0.16 0.21 0.22 0.18 0.13 0.11 0.10 0.10 0.10 0.09 0.09 0.09
0.00 0.00 0.01 0.02 0.02 0.01 0.00 0.01 0.02 0.03 0.04 0.06 0.06 0.06 0.05 0.03 0.03 0.02 0.06 0.11 0.15 0.19 0.18 0.14 0.16 0.15 0.22 0.29 0.27 0.20 0.16 0.15 0.12 0.10 0.08 0.07 0.06 0.06
0.00 0.00 0.00 0.01 0.01 0.01 0.00 0.01 0.02 0.02 0.03 0.05 0.06 0.06 0.07 0.06 0.06 0.06 0.08 0.14 0.18 0.19 0.19 0.14 0.15 0.13 0.16 0.27 0.28 0.22 0.15 0.12 0.10 0.10 0.09 0.07 0.06 0.05
0.00 0.00 0.00 0.00 0.00 0.00 0.00 0.00 0.00 0.00 0.01 0.02 0.04 0.06 0.08 0.11 0.14 0.14 0.15 0.18 0.24 0.24 0.19 0.14 0.12 0.10 0.07 0.11 0.18 0.21 0.15 0.11 0.08 0.06 0.06 0.06 0.05 0.04
0.00 0.00 0.00 0.00 0.00 0.00 0.00 0.00 0.00 0.00 0.00 0.01 0.03 0.06 0.10 0.16 0.17 0.20 0.22 0.24 0.28 0.34 0.30 0.21 0.15 0.11 0.08 0.05 0.07 0.11 0.13 0.12 0.09 0.08 0.06 0.04 0.03 0.02
0.00 0.00 0.00 0.00 0.00 0.00 0.00 0.00 0.00 0.00 0.00 0.01 0.02 0.05 0.08 0.12 0.16 0.22 0.26 0.29 0.30 0.38 0.43 0.37 0.29 0.21 0.16 0.11 0.06 0.06 0.07 0.08 0.07 0.06 0.05 0.04 0.03 0.02
0.00 0.00 0.00 0.00 0.00 0.00 0.00 0.00 0.00 0.00 0.00 0.00 0.01 0.03 0.05 0.09 0.14 0.20 0.26 0.29 0.30 0.36 0.45 0.49 0.40 0.30 0.25 0.20 0.14 0.09 0.06 0.05 0.05 0.04 0.03 0.03 0.02 0.01
0.00 0.00 0.00 0.00 0.00 0.00 0.00 0.00 0.00 0.00 0.00 0.00 0.00 0.01 0.03 0.07 0.11 0.15 0.21 0.25 0.28 0.29 0.35 0.43 0.41 0.33 0.30 0.31 0.23 0.13 0.07 0.05 0.04 0.03 0.02 0.02 0.01 0.01
0.00 0.00 0.00 0.00 0.00 0.00 0.00 0.00 0.00 0.00 0.00 0.00 0.00 0.01 0.02 0.04 0.06 0.10 0.15 0.19 0.23 0.24 0.26 0.30 0.32 0.28 0.24 0.25 0.28 0.15 0.07 0.04 0.03 0.02 0.02 0.01 0.01 0.00
0.00 0.00 0.00 0.00 0.00 0.00 0.00 0.00 0.00 0.00 0.00 0.00 0.00 0.00 0.01 0.02 0.03 0.06 0.09 0.13 0.16 0.18 0.20 0.22 0.24 0.24 0.17 0.10 0.09 0.10 0.07 0.04 0.02 0.01 0.01 0.01 0.00 0.00
0.00 0.00 0.00 0.00 0.00 0.00 0.00 0.00 0.00 0.00 0.00 0.00 0.00 0.00 0.00 0.01 0.01 0.03 0.04 0.07 0.09 0.11 0.13 0.15 0.16 0.16 0.12 0.07 0.04 0.03 0.03 0.02 0.01 0.01 0.00 0.00 0.00 0.00
0.00 0.00 0.00 0.00 0.00 0.00 0.00 0.00 0.00 0.00 0.00 0.00 0.00 0.00 0.00 0.00 0.00 0.01 0.01 0.03 0.04 0.05 0.06 0.07 0.07 0.08 0.08 0.06 0.05 0.03 0.01 0.00 0.00 0.00 0.00 0.00 0.00 0.00
0.00 0.00 0.00 0.00 0.00 0.00 0.00 0.00 0.00 0.00 0.00 0.00 0.00 0.00 0.00 0.00 0.00 0.00 0.00 0.01 0.01 0.01 0.02 0.02 0.02 0.02 0.02 0.02 0.02 0.01 0.01 0.00 0.00 0.00 0.00 0.00 0.00 0.00